15/01/2009,00:00:12,   0.0,  6.9,  168, +9.9,  89.9,    0.3,   +5.0,   +5.1,   +8.4, +988.62,15
15/01/2009,00:00:32,   0.0,  8.0,  188, +9.9,  90.0,    0.3,   +5.0,   +5.1,   +8.4, +988.61,00
15/01/2009,00:00:52,   0.0, 10.7,  157, +9.9,  90.0,    0.3,   +5.1,   +5.1,   +8.4, +988.61,0F
15/01/2009,00:01:12,   0.0,  4.7,  171, +9.9,  90.2,    0.3,   +5.0,   +5.1,   +8.4, +988.59,03
15/01/2009,00:01:32,   0.0,  5.4,  160, +9.9,  90.3,    0.3,   +5.0,   +5.2,   +8.4, +988.57,01
15/01/2009,00:01:52,   0.0,  6.5,  191, +9.9,  90.5,    0.3,   +5.0,   +5.1,   +8.4, +988.55,08
15/01/2009,00:02:12,   0.0,  4.4,  177, +9.8,  90.5,    0.3,   +5.0,   +5.1,   +8.4, +988.62,03
15/01/2009,00:02:32,   0.0,  4.7,  151, +9.8,  90.7,    0.3,   +4.9,   +5.2,   +8.3, +988.57,0E
15/01/2009,00:02:52,   0.0,  4.3,  152, +9.8,  90.8,    0.4,   +5.0,   +5.2,   +8.4, +988.56,07
15/01/2009,00:03:12,   0.0,  4.4,  178, +9.8,  90.8,    0.5,   +5.0,   +5.1,   +8.4, +988.63,0B
15/01/2009,00:03:32,   0.0,  9.7,  178, +9.8,  90.9,    0.6,   +4.9,   +5.2,   +8.3, +988.60,1C
15/01/2009,00:03:52,   0.0,  3.8,  166, +9.8,  90.9,    0.3,   +5.0,   +5.2,   +8.3, +988.55,0F
15/01/2009,00:04:12,   0.0, 11.0,  154, +9.8,  91.0,    0.3,   +4.9,   +5.2,   +8.3, +988.48,12
15/01/2009,00:04:32,   0.0,  7.1,  170, +9.8,  91.1,    0.2,   +5.0,   +5.2,   +8.3, +988.52,FB
15/01/2009,00:04:52,   0.0,  9.5,  169, +9.8,  91.2,    0.2,   +5.0,   +5.1,   +8.4, +988.62,0D
15/01/2009,00:05:12,   0.0,  5.2,  148, +9.8,  91.2,    0.3,   +4.9,   +5.2,   +8.3, +988.57,0D
15/01/2009,00:05:32,   0.0,  7.5,  163, +9.8,  91.2,    0.3,   +4.9,   +5.2,   +8.3, +988.57,11
15/01/2009,00:05:52,   0.0,  7.1,  181, +9.8,  91.3,    0.2,   +5.0,   +5.2,   +8.3, +988.53,03
15/01/2009,00:06:12,   0.0,  5.6,  178, +9.7,  91.4,    0.2,   +5.0,   +5.1,   +8.4, +988.52,08
15/01/2009,00:06:32,   0.0,  4.6,  178, +9.7,  91.4,    0.3,   +5.1,   +5.1,   +8.4, +988.49,11
15/01/2009,00:06:52,   0.0,  8.0,  176, +9.7,  91.5,    0.2,   +4.9,   +5.2,   +8.3, +988.52,10
15/01/2009,00:07:12,   0.0,  5.3,  187, +9.7,  91.6,    0.3,   +5.0,   +5.1,   +8.4, +988.55,0C
15/01/2009,00:07:32,   0.0,  5.7,  175, +9.7,  91.6,    0.3,   +4.9,   +5.2,   +8.3, +988.53,15
15/01/2009,00:07:52,   0.0,  7.9,  121, +9.7,  91.7,    0.2,   +5.1,   +5.1,   +8.4, +988.58,10
15/01/2009,00:08:12,   0.0,  6.8,  162, +9.7,  91.7,    0.2,   +5.0,   +5.2,   +8.3, +988.52,09
15/01/2009,00:08:32,   0.0,  8.8,  184, +9.7,  91.7,    0.3,   +5.0,   +5.1,   +8.4, +988.55,15
15/01/2009,00:08:52,   0.0,  7.3,  167, +9.7,  91.7,    0.2,   +4.9,   +5.2,   +8.3, +988.53,17
15/01/2009,00:09:12,   0.0,  7.4,  164, +9.7,  91.8,    0.2,   +5.1,   +5.1,   +8.4, +988.50,09
15/01/2009,00:09:32,   0.0,  9.2,  156, +9.7,  91.8,    0.2,   +5.0,   +5.2,   +8.3, +988.57,12
15/01/2009,00:09:52,   0.0, 10.1,  172, +9.7,  91.8,    0.3,   +5.0,   +5.1,   +8.3, +988.50,12
15/01/2009,00:10:12,   0.0,  5.3,  165, +9.7,  91.7,    0.2,   +4.9,   +5.2,   +8.3, +988.52,07
15/01/2009,00:10:32,   0.0,  6.0,  152, +9.7,  91.8,    0.2,   +5.1,   +5.1,   +8.4, +988.58,03
15/01/2009,00:10:52,   0.0,  8.2,  161, +9.7,  91.9,    0.2,   +5.0,   +5.2,   +8.3, +988.50,01
15/01/2009,00:11:12,   0.0,  7.9,  170, +9.7,  91.9,    0.2,   +5.1,   +5.1,   +8.4, +988.51,06
15/01/2009,00:11:32,   0.0,  9.0,  139, +9.7,  91.9,    0.3,   +4.9,   +5.2,   +8.3, +988.37,12
15/01/2009,00:11:52,   0.0,  4.1,  150, +9.7,  92.0,    0.2,   +5.1,   +5.1,   +8.4, +988.50,F4
15/01/2009,00:12:12,   0.0, 11.5,  157, +9.6,  92.0,    0.3,   +5.1,   +5.1,   +8.4, +988.42,0B
15/01/2009,00:12:32,   0.0,  8.4,  179, +9.6,  92.1,    0.3,   +5.1,   +5.1,   +8.4, +988.57,0D
15/01/2009,00:12:52,   0.0,  6.2,  164, +9.7,  92.1,    0.3,   +4.9,   +5.2,   +8.3, +988.49,0E
15/01/2009,00:13:12,   0.0,  6.5,  154, +9.6,  92.2,    0.3,   +5.0,   +5.1,   +8.4, +988.39,04
15/01/2009,00:13:32,   0.0,  8.5,   67, +9.6,  92.2,    0.3,   +5.0,   +5.2,   +8.3, +988.41,F4
15/01/2009,00:13:52,   0.0,  7.5,  178, +9.6,  92.2,    0.2,   +5.0,   +5.1,   +8.3, +988.48,0D
15/01/2009,00:14:12,   0.0,  9.8,  162, +9.6,  92.3,    0.2,   +5.1,   +5.1,   +8.4, +988.52,06
15/01/2009,00:14:32,   0.0,  8.5,  167, +9.6,  92.3,    0.2,   +5.0,   +5.1,   +8.4, +988.38,0C
15/01/2009,00:14:52,   0.0,  5.5,  169, +9.6,  92.3,    0.3,   +5.0,   +5.2,   +8.3, +988.43,0A
15/01/2009,00:15:12,   0.0,  7.0,  152, +9.6,  92.4,    0.2,   +5.0,   +5.2,   +8.3, +988.48,01
15/01/2009,00:15:32,   0.0,  7.7,  141, +9.7,  92.4,    0.2,   +5.0,   +5.2,   +8.3, +988.50,02
15/01/2009,00:15:52,   0.0, 10.5,  153, +9.7,  92.5,    0.2,   +5.0,   +5.1,   +8.3, +988.51,10
15/01/2009,00:16:12,   0.0,  7.5,  192, +9.7,  92.5,    0.2,   +5.0,   +5.1,   +8.3, +988.49,0D
15/01/2009,00:16:32,   0.0,  7.5,  188, +9.6,  92.5,    0.1,   +5.1,   +5.1,   +8.4, +988.43,0E
15/01/2009,00:16:52,   0.0,  6.0,  136, +9.7,  92.5,    0.2,   +5.0,   +5.1,   +8.4, +988.48,09
15/01/2009,00:17:12,   0.0,  6.4,  174, +9.6,  92.6,    0.3,   +5.1,   +5.1,   +8.4, +988.42,08
15/01/2009,00:17:32,   0.0,  7.8,  169, +9.6,  92.6,    0.3,   +5.1,   +5.1,   +8.3, +988.38,17
15/01/2009,00:17:52,   0.0,  7.1,  180, +9.6,  92.6,    0.3,   +4.9,   +5.2,   +8.3, +988.39,14
15/01/2009,00:18:12,   0.0,  4.0,  144, +9.6,  92.7,    0.3,   +4.9,   +5.2,   +8.3, +988.41,07
15/01/2009,00:18:32,   0.0,  6.3,  181, +9.6,  92.7,    0.2,   +5.0,   +5.2,   +8.3, +988.39,0D
15/01/2009,00:18:52,   0.0,  6.7,  185, +9.6,  92.7,    0.3,   +4.9,   +5.2,   +8.3, +988.43,1B
15/01/2009,00:19:12,   0.0,  5.3,  177, +9.6,  92.8,    0.3,   +5.0,   +5.1,   +8.3, +988.50,0A
15/01/2009,00:19:32,   0.0,  7.0,  178, +9.6,  92.7,    0.2,   +4.9,   +5.2,   +8.2, +988.40,11
15/01/2009,00:19:52,   0.0,  5.1,  158, +9.6,  92.7,    0.3,   +4.9,   +5.2,   +8.3, +988.49,1B
15/01/2009,00:20:12,   0.0,  6.5,  145, +9.6,  92.7,    0.3,   +5.0,   +5.2,   +8.3, +988.50,00
15/01/2009,00:20:32,   0.0,  7.1,  214, +9.6,  92.7,    0.3,   +5.0,   +5.2,   +8.3, +988.45,00
15/01/2009,00:20:52,   0.0,  6.5,  167, +9.6,  92.7,    0.4,   +4.9,   +5.2,   +8.3, +988.46,16
15/01/2009,00:21:12,   0.0,  7.2,  147, +9.6,  92.7,    0.4,   +5.0,   +5.2,   +8.3, +988.44,05
15/01/2009,00:21:32,   0.0,  7.2,  152, +9.6,  92.7,    0.4,   +5.0,   +5.1,   +8.3, +988.53,02
15/01/2009,00:21:52,   0.0,  6.5,  155, +9.6,  92.8,    0.4,   +5.0,   +5.1,   +8.3, +988.56,0D
15/01/2009,00:22:12,   0.0,  5.6,  160, +9.6,  92.8,    0.4,   +5.1,   +5.1,   +8.3, +988.62,04
15/01/2009,00:22:32,   0.0,  3.4,  174, +9.6,  92.8,    0.3,   +5.0,   +5.1,   +8.3, +988.54,06
15/01/2009,00:22:52,   0.0,  7.4,  145, +9.6,  92.8,    0.3,   +5.0,   +5.1,   +8.3, +988.58,0E
15/01/2009,00:23:12,   0.0,  4.6,  161, +9.6,  92.7,    0.4,   +5.0,   +5.1,   +8.3, +988.60,01
15/01/2009,00:23:32,   0.0,  6.4,  175, +9.5,  92.7,    0.4,   +4.9,   +5.2,   +8.3, +988.53,12
15/01/2009,00:23:52,   0.0,  7.4,  164, +9.6,  92.8,    0.3,   +4.9,   +5.2,   +8.2, +988.58,18
15/01/2009,00:24:12,   0.0,  7.2,  177, +9.6,  92.8,    0.4,   +5.0,   +5.1,   +8.3, +988.51,09
15/01/2009,00:24:32,   0.0, 10.9,  172, +9.6,  92.8,    0.4,   +5.0,   +5.2,   +8.2, +988.47,1C
15/01/2009,00:24:52,   0.2,  6.5,  163, +9.6,  92.7,    0.4,   +4.9,   +5.2,   +8.2, +988.54,16
15/01/2009,00:25:12,   0.2,  8.9,  169, +9.6,  92.7,    0.5,   +5.0,   +5.2,   +8.3, +988.67,1D
15/01/2009,00:25:32,   0.2,  9.1,  183, +9.5,  92.7,    0.5,   +5.0,   +5.1,   +8.3, +988.57,11
15/01/2009,00:25:52,   0.2,  8.4,  142, +9.5,  92.6,    0.4,   +5.1,   +5.1,   +8.3, +988.48,0F
15/01/2009,00:26:12,   0.2,  5.9,  181, +9.5,  92.6,    0.5,   +4.9,   +5.2,   +8.2, +988.54,16
15/01/2009,00:26:32,   0.2,  6.4,  165, +9.5,  92.7,    0.4,   +5.1,   +5.1,   +8.3, +988.50,0B
15/01/2009,00:26:52,   0.2, 11.4,  161, +9.5,  92.7,    0.2,   +5.1,   +5.2,   +8.3, +988.44,17
15/01/2009,00:27:12,   0.2,  8.1,  186, +9.5,  92.6,    0.3,   +5.0,   +5.2,   +8.2, +988.51,0A
15/01/2009,00:27:32,   0.2,  7.5,  173, +9.5,  92.6,    0.3,   +5.0,   +5.2,   +8.2, +988.45,0E
15/01/2009,00:27:52,   0.2,  5.0,  145, +9.5,  92.6,    0.2,   +5.1,   +5.1,   +8.3, +988.44,07
15/01/2009,00:28:12,   0.2,  9.6,  162, +9.5,  92.6,    0.2,   +4.9,   +5.2,   +8.2, +988.65,17
15/01/2009,00:28:32,   0.2,  5.8,  156, +9.5,  92.5,    0.2,   +5.1,   +5.1,   +8.3, +988.49,14
15/01/2009,00:28:52,   0.2,  9.7,  161, +9.6,  92.5,    0.3,   +4.9,   +5.2,   +8.2, +988.60,17
15/01/2009,00:29:12,   0.2,  9.5,  162, +9.5,  92.4,    0.2,   +5.0,   +5.2,   +8.3, +988.45,0C
15/01/2009,00:29:32,   0.2,  6.6,  176, +9.6,  92.5,    0.2,   +5.1,   +5.1,   +8.3, +988.46,14
15/01/2009,00:29:52,   0.2,  5.9,  158, +9.6,  92.5,    0.3,   +5.1,   +5.1,   +8.3, +988.44,17
15/01/2009,00:30:12,   0.2,  6.5,  162, +9.6,  92.5,    0.2,   +5.1,   +5.1,   +8.3, +988.40,FE
15/01/2009,00:30:32,   0.2,  7.2,  170, +9.5,  92.5,    0.2,   +5.0,   +5.2,   +8.3, +988.41,FD
15/01/2009,00:30:52,   0.2,  8.2,  163, +9.6,  92.5,    0.2,   +5.1,   +5.1,   +8.3, +988.38,09
15/01/2009,00:31:12,   0.2,  8.3,  162, +9.5,  92.5,    0.3,   +5.0,   +5.2,   +8.3, +988.40,FF
15/01/2009,00:31:32,   0.2,  9.1,  162, +9.6,  92.4,    0.3,   +5.1,   +5.1,   +8.3, +988.35,04
15/01/2009,00:31:52,   0.2,  7.0,  155, +9.5,  92.4,    0.2,   +5.1,   +5.1,   +8.3, +988.42,01
15/01/2009,00:32:12,   0.2,  5.6,  173, +9.5,  92.4,    0.3,   +5.1,   +5.1,   +8.3, +988.45,06
15/01/2009,00:32:32,   0.2,  5.5,  179, +9.5,  92.3,    0.2,   +5.0,   +5.2,   +8.3, +988.37,0C
15/01/2009,00:32:52,   0.2,  6.5,  195, +9.6,  92.4,    0.3,   +5.0,   +5.2,   +8.3, +988.47,11
15/01/2009,00:33:12,   0.2,  5.1,  162, +9.6,  92.4,    0.4,   +4.9,   +5.2,   +8.3, +988.44,09
15/01/2009,00:33:32,   0.2,  5.0,  148, +9.5,  92.4,    0.2,   +5.0,   +5.1,   +8.3, +988.41,FF
15/01/2009,00:33:52,   0.2,  5.3,  176, +9.5,  92.5,    0.2,   +5.1,   +5.1,   +8.3, +988.45,0B
15/01/2009,00:34:12,   0.2,  6.7,  174, +9.5,  92.5,    0.2,   +5.1,   +5.1,   +8.3, +988.42,08
15/01/2009,00:34:32,   0.2,  6.9,  114, +9.5,  92.4,    0.3,   +5.1,   +5.1,   +8.3, +988.34,07
15/01/2009,00:34:52,   0.2,  6.8,  167, +9.5,  92.3,    0.2,   +4.9,   +5.2,   +8.2, +988.37,18
15/01/2009,00:35:12,   0.2,  8.4,  165, +9.5,  92.3,    0.3,   +5.1,   +5.1,   +8.3, +988.45,0A
15/01/2009,00:35:32,   0.2,  5.7,  179, +9.5,  92.4,    0.2,   +5.1,   +5.2,   +8.3, +988.46,13
15/01/2009,00:35:52,   0.2,  6.9,  202, +9.5,  92.4,    0.3,   +5.0,   +5.2,   +8.3, +988.42,07
15/01/2009,00:36:12,   0.2, 10.4,  156, +9.5,  92.4,    0.2,   +5.0,   +5.2,   +8.3, +988.39,17
15/01/2009,00:36:32,   0.2,  6.9,  174, +9.5,  92.4,    0.2,   +5.0,   +5.2,   +8.3, +988.39,13
15/01/2009,00:36:52,   0.2,  7.7,  168, +9.5,  92.4,    0.2,   +5.0,   +5.2,   +8.2, +988.41,0F
15/01/2009,00:37:12,   0.2,  7.2,  159, +9.5,  92.4,    0.2,   +4.9,   +5.3,   +8.2, +988.41,10
15/01/2009,00:37:32,   0.2,  4.4,  176, +9.5,  92.4,    0.2,   +5.1,   +5.2,   +8.3, +988.48,10
15/01/2009,00:37:52,   0.2,  9.4,  183, +9.5,  92.4,    0.3,   +5.1,   +5.1,   +8.3, +988.40,0D
15/01/2009,00:38:12,   0.2, 11.0,  180, +9.5,  92.4,    0.2,   +5.0,   +5.1,   +8.3, +988.37,10
15/01/2009,00:38:32,   0.2,  6.5,  150, +9.5,  92.4,    0.3,   +5.1,   +5.1,   +8.3, +988.42,06
15/01/2009,00:38:52,   0.2,  7.5,  128, +9.5,  92.5,    0.3,   +5.1,   +5.1,   +8.3, +988.25,10
15/01/2009,00:39:12,   0.2,  7.1,  130, +9.5,  92.5,    0.4,   +5.1,   +5.1,   +8.3, +988.35,04
15/01/2009,00:39:32,   0.2,  8.6,  169, +9.5,  92.5,    0.4,   +5.0,   +5.1,   +8.3, +988.32,14
15/01/2009,00:39:52,   0.2,  8.6,  164, +9.5,  92.5,    0.4,   +5.1,   +5.1,   +8.3, +988.38,18
15/01/2009,00:40:12,   0.2,  5.4,  143, +9.5,  92.5,    0.5,   +5.0,   +5.1,   +8.3, +988.36,02
15/01/2009,00:40:32,   0.2,  5.2,  173, +9.5,  92.5,    0.5,   +5.0,   +5.2,   +8.2, +988.42,02
15/01/2009,00:40:52,   0.2,  4.9,  195, +9.5,  92.5,    0.5,   +5.0,   +5.2,   +8.2, +988.37,12
15/01/2009,00:41:12,   0.2,  5.8,  178, +9.5,  92.5,    0.5,   +5.1,   +5.2,   +8.2, +988.41,0C
15/01/2009,00:41:32,   0.2,  8.7,  158, +9.5,  92.5,    0.4,   +5.1,   +5.2,   +8.2, +988.50,0D
15/01/2009,00:41:52,   0.2,  5.5,  166, +9.5,  92.5,    0.5,   +5.0,   +5.2,   +8.2, +988.44,0C
15/01/2009,00:42:12,   0.2,  6.7,  179, +9.5,  92.5,    0.5,   +5.0,   +5.2,   +8.2, +988.47,13
15/01/2009,00:42:32,   0.2,  6.8,  177, +9.5,  92.5,    0.4,   +5.1,   +5.1,   +8.3, +988.35,11
15/01/2009,00:42:52,   0.2,  7.0,  151, +9.5,  92.5,    0.4,   +5.0,   +5.1,   +8.2, +988.41,FF
15/01/2009,00:43:12,   0.2,  6.7,  152, +9.5,  92.5,    0.5,   +5.1,   +5.2,   +8.3, +988.43,09
15/01/2009,00:43:32,   0.2,  7.3,  161, +9.5,  92.5,    0.4,   +5.0,   +5.1,   +8.3, +988.40,02
15/01/2009,00:43:52,   0.2,  7.2,  140, +9.5,  92.4,    0.4,   +5.0,   +5.1,   +8.3, +988.39,07
15/01/2009,00:44:12,   0.2,  5.6,  111, +9.5,  92.4,    0.4,   +5.1,   +5.1,   +8.3, +988.31,FD
15/01/2009,00:44:32,   0.2,  5.9,  168, +9.5,  92.4,    0.4,   +5.0,   +5.2,   +8.2, +988.41,0E
15/01/2009,00:44:52,   0.2,  5.3,  144, +9.5,  92.4,    0.5,   +5.0,   +5.2,   +8.2, +988.38,0B
15/01/2009,00:45:12,   0.2,  6.8,  163, +9.5,  92.4,    0.3,   +5.0,   +5.2,   +8.2, +988.40,06
15/01/2009,00:45:32,   0.2,  4.4,  136, +9.5,  92.4,    0.4,   +5.0,   +5.2,   +8.2, +988.39,0B
15/01/2009,00:45:52,   0.2,  7.3,  167, +9.5,  92.4,    0.4,   +5.0,   +5.3,   +8.2, +988.40,0C
15/01/2009,00:46:12,   0.2,  9.0,  106, +9.5,  92.4,    0.6,   +5.1,   +5.2,   +8.3, +988.29,0B
15/01/2009,00:46:32,   0.2,  5.5,  175, +9.5,  92.3,    0.5,   +5.0,   +5.1,   +8.3, +988.27,0E
15/01/2009,00:46:52,   0.2,  9.3,  180, +9.5,  92.3,    0.3,   +5.1,   +5.2,   +8.2, +988.35,0C
15/01/2009,00:47:12,   0.2,  5.1,  171, +9.5,  92.4,    0.2,   +4.9,   +5.2,   +8.1, +988.37,0B
15/01/2009,00:47:32,   0.2,  7.7,  164, +9.5,  92.3,    0.3,   +5.0,   +5.2,   +8.2, +988.32,0B
15/01/2009,00:47:52,   0.2,  5.9,  146, +9.5,  92.3,    0.2,   +4.9,   +5.3,   +8.2, +988.31,14
15/01/2009,00:48:12,   0.2,  4.3,  119, +9.5,  92.2,    0.2,   +4.9,   +5.2,   +8.2, +988.32,09
15/01/2009,00:48:32,   0.2,  3.3,  162, +9.5,  92.2,    0.3,   +5.0,   +5.2,   +8.2, +988.34,03
15/01/2009,00:48:52,   0.2,  5.5,  166, +9.5,  92.3,    0.2,   +5.1,   +5.1,   +8.2, +988.47,11
15/01/2009,00:49:12,   0.2, 10.9,  161, +9.5,  92.2,    0.3,   +5.0,   +5.2,   +8.2, +988.39,1A
15/01/2009,00:49:32,   0.2,  7.7,  161, +9.5,  92.2,    0.3,   +4.9,   +5.2,   +8.2, +988.31,10
15/01/2009,00:49:52,   0.2,  5.1,  171, +9.5,  92.2,    0.4,   +5.0,   +5.2,   +8.2, +988.33,06
15/01/2009,00:50:12,   0.2,  8.9,  166, +9.5,  92.2,    0.3,   +5.1,   +5.2,   +8.2, +988.29,0E
15/01/2009,00:50:32,   0.2, 10.1,  158, +9.5,  92.2,    0.3,   +5.1,   +5.2,   +8.3, +988.33,0E
15/01/2009,00:50:52,   0.2, 10.1,  166, +9.5,  92.1,    0.3,   +5.0,   +5.1,   +8.2, +988.35,0D
15/01/2009,00:51:12,   0.2,  6.3,  158, +9.5,  92.0,    0.3,   +5.1,   +5.1,   +8.3, +988.29,06
15/01/2009,00:51:32,   0.2,  5.8,  174, +9.5,  92.1,    0.3,   +5.0,   +5.1,   +8.3, +988.27,08
15/01/2009,00:51:52,   0.2,  5.7,  167, +9.5,  92.1,    0.3,   +5.0,   +5.2,   +8.2, +988.33,08
15/01/2009,00:52:12,   0.2,  5.4,  180, +9.5,  92.1,    0.3,   +5.0,   +5.1,   +8.2, +988.26,FE
15/01/2009,00:52:32,   0.2,  4.5,  169, +9.5,  92.1,    0.3,   +5.1,   +5.1,   +8.3, +988.32,06
15/01/2009,00:52:52,   0.2,  5.4,  140, +9.5,  92.1,    0.3,   +4.9,   +5.2,   +8.2, +988.29,0A
15/01/2009,00:53:12,   0.2,  4.5,  201, +9.5,  92.2,    0.3,   +5.0,   +5.2,   +8.2, +988.35,FB
15/01/2009,00:53:32,   0.2,  5.4,  169, +9.5,  92.1,    0.4,   +5.0,   +5.2,   +8.2, +988.32,07
15/01/2009,00:53:52,   0.2,  9.8,  160, +9.5,  92.1,    0.3,   +5.0,   +5.2,   +8.2, +988.21,05
15/01/2009,00:54:12,   0.2,  8.9,  157, +9.5,  92.0,    0.3,   +5.0,   +5.2,   +8.2, +988.26,0C
15/01/2009,00:54:32,   0.2,  4.7,  158, +9.5,  92.0,    0.3,   +5.0,   +5.2,   +8.2, +988.26,09
15/01/2009,00:54:52,   0.2,  6.1,  172, +9.5,  92.0,    0.4,   +4.9,   +5.2,   +8.2, +988.27,0D
15/01/2009,00:55:12,   0.2,  4.3,  177, +9.5,  92.0,    0.3,   +5.1,   +5.2,   +8.2, +988.31,02
15/01/2009,00:55:32,   0.2,  8.7,  148, +9.5,  92.0,    0.3,   +5.0,   +5.2,   +8.2, +988.29,10
15/01/2009,00:55:52,   0.2,  7.4,  171, +9.5,  92.0,    0.3,   +5.0,   +5.2,   +8.2, +988.37,09
15/01/2009,00:56:12,   0.2,  7.6,  169, +9.5,  92.0,    0.2,   +4.9,   +5.2,   +8.2, +988.34,13
15/01/2009,00:56:32,   0.2,  5.3,  170, +9.5,  92.0,    0.2,   +5.1,   +5.1,   +8.3, +988.35,02
15/01/2009,00:56:52,   0.2,  4.6,  177, +9.5,  92.1,    0.3,   +5.0,   +5.2,   +8.3, +988.34,0E
15/01/2009,00:57:12,   0.2,  9.1,  176, +9.5,  92.0,    0.2,   +5.0,   +5.2,   +8.2, +988.33,06
15/01/2009,00:57:32,   0.2,  5.3,  146, +9.5,  92.0,    0.2,   +5.0,   +5.2,   +8.2, +988.36,06
15/01/2009,00:57:52,   0.2,  4.1,  163, +9.5,  92.1,    0.2,   +5.1,   +5.1,   +8.3, +988.29,08
15/01/2009,00:58:12,   0.2,  8.8,  169, +9.5,  92.1,    0.2,   +5.1,   +5.1,   +8.3, +988.38,16
15/01/2009,00:58:32,   0.2, 10.2,  183, +9.5,  92.1,    0.2,   +5.0,   +5.2,   +8.3, +988.38,17
15/01/2009,00:58:52,   0.2,  5.8,  148, +9.5,  92.2,    0.2,   +5.1,   +5.1,   +8.3, +988.35,12
15/01/2009,00:59:12,   0.2,  3.9,  140, +9.5,  92.2,    0.3,   +4.9,   +5.3,   +8.2, +988.29,12
15/01/2009,00:59:32,   0.2,  6.2,  175, +9.5,  92.2,    0.3,   +5.1,   +5.2,   +8.3, +988.34,0D
15/01/2009,00:59:52,   0.2,  5.8,  166, +9.5,  92.3,    0.2,   +5.0,   +5.2,   +8.3, +988.32,11
15/01/2009,01:00:12,   0.2,  7.4,  168, +9.5,  92.3,    0.2,   +5.1,   +5.1,   +8.3, +988.39,07
15/01/2009,01:00:32,   0.2,  7.2,  166, +9.5,  92.2,    0.1,   +4.9,   +5.2,   +8.2, +988.26,06
15/01/2009,01:00:52,   0.2,  6.4,  164, +9.5,  92.2,    0.3,   +5.0,   +5.2,   +8.3, +988.32,FF
15/01/2009,01:01:12,   0.2,  6.7,  156, +9.5,  92.2,    0.2,   +5.1,   +5.1,   +8.2, +988.24,FF
15/01/2009,01:01:32,   0.2,  5.4,  167, +9.5,  92.3,    0.3,   +5.1,   +5.1,   +8.2, +988.35,03
15/01/2009,01:01:52,   0.2,  5.2,  181, +9.5,  92.3,    0.3,   +5.1,   +5.2,   +8.2, +988.33,FE
15/01/2009,01:02:12,   0.2,  5.9,  138, +9.5,  92.3,    0.2,   +5.0,   +5.2,   +8.2, +988.31,00
15/01/2009,01:02:32,   0.2,  4.9,  144, +9.5,  92.4,    0.3,   +5.0,   +5.2,   +8.2, +988.36,05
15/01/2009,01:02:52,   0.2,  7.3,  169, +9.4,  92.3,    0.3,   +5.0,   +5.2,   +8.2, +988.35,08
15/01/2009,01:03:12,   0.2,  8.5,  160, +9.5,  92.4,    0.3,   +5.1,   +5.1,   +8.3, +988.45,03
15/01/2009,01:03:32,   0.2,  5.7,  145, +9.5,  92.4,    0.3,   +5.0,   +5.2,   +8.2, +988.32,02
15/01/2009,01:03:52,   0.2,  6.2,  177, +9.5,  92.4,    0.3,   +5.0,   +5.2,   +8.2, +988.28,0A
15/01/2009,01:04:12,   0.2,  3.9,  142, +9.5,  92.5,    0.3,   +5.0,   +5.2,   +8.2, +988.29,05
15/01/2009,01:04:32,   0.2,  5.6,  166, +9.5,  92.5,    0.3,   +4.9,   +5.2,   +8.2, +988.35,11
15/01/2009,01:04:52,   0.2,  9.7,  166, +9.5,  92.6,    0.2,   +5.1,   +5.1,   +8.2, +988.30,0B
15/01/2009,01:05:12,   0.2, 11.6,  170, +9.5,  92.6,    0.3,   +4.9,   +5.2,   +8.2, +988.28,1B
15/01/2009,01:05:32,   0.2,  7.4,  166, +9.5,  92.5,    0.3,   +5.0,   +5.2,   +8.3, +988.30,06
15/01/2009,01:05:52,   0.2,  8.7,  161, +9.5,  92.5,    0.3,   +5.1,   +5.1,   +8.3, +988.31,08
15/01/2009,01:06:12,   0.2,  5.2,  188, +9.5,  92.5,    0.3,   +4.9,   +5.2,   +8.2, +988.34,10
15/01/2009,01:06:32,   0.2, 11.0,  157, +9.5,  92.6,    0.3,   +4.9,   +5.3,   +8.2, +988.27,1D
15/01/2009,01:06:52,   0.2,  4.5,  159, +9.5,  92.6,    0.3,   +5.0,   +5.2,   +8.3, +988.32,0C
15/01/2009,01:07:12,   0.2,  7.1,  190, +9.5,  92.7,    0.3,   +5.0,   +5.2,   +8.2, +988.26,06
15/01/2009,01:07:32,   0.2,  5.1,  119, +9.5,  92.6,    0.3,   +5.0,   +5.2,   +8.3, +988.33,05
15/01/2009,01:07:52,   0.2,  7.5,  137, +9.5,  92.7,    0.2,   +5.0,   +5.2,   +8.2, +988.27,0F
15/01/2009,01:08:12,   0.2,  5.6,  171, +9.5,  92.7,    0.3,   +5.0,   +5.1,   +8.3, +988.30,04
15/01/2009,01:08:32,   0.2,  5.1,  161, +9.5,  92.7,    0.3,   +4.9,   +5.2,   +8.2, +988.39,11
15/01/2009,01:08:52,   0.2,  4.8,  161, +9.5,  92.8,    0.3,   +5.0,   +5.2,   +8.3, +988.28,11
15/01/2009,01:09:12,   0.2,  3.7,  171, +9.5,  92.9,    0.3,   +5.0,   +5.2,   +8.3, +988.30,07
15/01/2009,01:09:32,   0.4,  3.3,  179, +9.5,  92.9,    0.3,   +4.9,   +5.2,   +8.2, +988.33,19
15/01/2009,01:09:52,   0.4,  6.9,  171, +9.5,  93.0,    0.3,   +5.0,   +5.1,   +8.3, +988.28,10
15/01/2009,01:10:12,   0.4,  5.1,  169, +9.5,  93.0,    0.2,   +5.0,   +5.2,   +8.2, +988.31,FB
15/01/2009,01:10:32,   0.4,  7.7,  142, +9.5,  93.1,    0.3,   +5.1,   +5.1,   +8.3, +988.31,FF
15/01/2009,01:10:52,   0.4,  6.2,  149, +9.5,  93.1,    0.2,   +5.0,   +5.1,   +8.3, +988.31,00
15/01/2009,01:11:12,   0.4,  9.1,  180, +9.5,  93.1,    0.3,   +5.1,   +5.1,   +8.3, +988.15,FE
15/01/2009,01:11:32,   0.4,  9.4,  175, +9.4,  93.1,    0.3,   +5.0,   +5.2,   +8.2, +988.31,03
15/01/2009,01:11:52,   0.4,  7.5,  165, +9.4,  93.1,    0.3,   +5.1,   +5.2,   +8.2, +988.23,05
15/01/2009,01:12:12,   0.4,  8.4,  178, +9.4,  93.2,    0.4,   +5.1,   +5.2,   +8.3, +988.31,08
15/01/2009,01:12:32,   0.4,  9.8,  173, +9.5,  93.2,    0.4,   +5.0,   +5.2,   +8.2, +988.20,07
15/01/2009,01:12:52,   0.4,  2.7,  181, +9.5,  93.2,    0.3,   +5.0,   +5.2,   +8.3, +988.23,03
15/01/2009,01:13:12,   0.4,  7.5,  160, +9.5,  93.2,    0.2,   +5.0,   +5.2,   +8.3, +988.22,FE
15/01/2009,01:13:32,   0.4,  7.7,  171, +9.5,  93.2,    0.4,   +5.0,   +5.3,   +8.2, +988.25,09
15/01/2009,01:13:52,   0.4,  6.7,  173, +9.4,  93.3,    0.4,   +5.0,   +5.2,   +8.2, +988.22,08
15/01/2009,01:14:12,   0.4,  3.4,  186, +9.4,  93.3,    0.2,   +5.1,   +5.1,   +8.3, +988.27,07
15/01/2009,01:14:32,   0.4,  6.5,  171, +9.4,  93.3,    0.1,   +5.0,   +5.2,   +8.2, +988.25,03
15/01/2009,01:14:52,   0.4,  9.7,  177, +9.4,  93.3,    0.2,   +5.0,   +5.1,   +8.3, +988.35,12
15/01/2009,01:15:12,   0.4,  5.9,  189, +9.4,  93.2,    0.2,   +5.0,   +5.2,   +8.2, +988.26,0F
15/01/2009,01:15:32,   0.4,  5.1,  163, +9.4,  93.2,    0.2,   +5.1,   +5.2,   +8.2, +988.21,FD
15/01/2009,01:15:52,   0.4, 10.0,  171, +9.4,  93.3,    0.3,   +5.0,   +5.2,   +8.2, +988.31,0B
15/01/2009,01:16:12,   0.4,  5.2,  121, +9.4,  93.3,    0.2,   +5.0,   +5.2,   +8.2, +988.27,FD
15/01/2009,01:16:32,   0.4,  3.4,  150, +9.4,  93.3,    0.2,   +5.0,   +5.1,   +8.3, +988.27,01
15/01/2009,01:16:52,   0.4,  8.8,  189, +9.4,  93.3,    0.2,   +5.0,   +5.2,   +8.2, +988.32,14
15/01/2009,01:17:12,   0.4,  7.8,  180, +9.5,  93.4,    0.3,   +5.1,   +5.1,   +8.3, +988.20,08
15/01/2009,01:17:32,   0.4,  5.2,  168, +9.4,  93.4,    0.2,   +4.9,   +5.2,   +8.2, +988.26,13
15/01/2009,01:17:52,   0.4,  4.6,  162, +9.5,  93.4,    0.2,   +5.1,   +5.1,   +8.3, +988.27,0D
15/01/2009,01:18:12,   0.4,  7.7,  180, +9.5,  93.4,    0.2,   +5.0,   +5.2,   +8.3, +988.28,0F
15/01/2009,01:18:32,   0.4,  6.6,  180, +9.4,  93.4,    0.2,   +5.0,   +5.2,   +8.3, +988.23,09
15/01/2009,01:18:52,   0.4,  6.1,  156, +9.4,  93.5,    0.2,   +5.0,   +5.2,   +8.2, +988.24,0A
15/01/2009,01:19:12,   0.4,  4.4,  198, +9.4,  93.5,    0.2,   +5.0,   +5.2,   +8.3, +988.23,0E
15/01/2009,01:19:32,   0.4,  7.6,  127, +9.4,  93.5,    0.2,   +5.0,   +5.2,   +8.3, +988.17,10
15/01/2009,01:19:52,   0.4,  4.7,  154, +9.4,  93.6,    0.1,   +5.1,   +5.1,   +8.3, +988.22,0C
15/01/2009,01:20:12,   0.4,  7.2,  163, +9.4,  93.6,    0.2,   +5.0,   +5.2,   +8.3, +988.24,01
15/01/2009,01:20:32,   0.6,  6.4,  163, +9.4,  93.6,    0.2,   +5.0,   +5.2,   +8.3, +988.14,05
15/01/2009,01:20:52,   0.6,  9.2,  151, +9.4,  93.6,    0.1,   +5.0,   +5.2,   +8.3, +988.17,07
15/01/2009,01:21:12,   0.6,  5.6,  161, +9.4,  93.7,    0.1,   +5.0,   +5.2,   +8.3, +988.25,05
15/01/2009,01:21:32,   0.6,  4.0,   94, +9.4,  93.7,    0.1,   +5.0,   +5.2,   +8.3, +988.21,F1
15/01/2009,01:21:52,   0.6,  5.8,  173, +9.5,  93.7,    0.3,   +5.0,   +5.2,   +8.2, +988.25,10
15/01/2009,01:22:12,   0.6,  5.6,  171, +9.4,  93.7,    0.5,   +5.0,   +5.2,   +8.2, +988.14,08